Change the Weather History Date:

Friday, January 25, 2013

  Actual Average Record
Temperature  
Mean Temperature 22 °F -  
Max Temperature 26 °F 46 °F 74 °F (1950)
Min Temperature 17 °F 32 °F 8 °F (1963)
Degree Days  
Heating Degree Days 44    
Moisture  
Dew Point 11 °F    
Average Humidity 66    
Maximum Humidity 100    
Minimum Humidity 46    
Precipitation  
Precipitation 0.00 in - - ()
Sea Level Pressure  
Sea Level Pressure 30.39 in    
Wind  
Wind Speed 6 mph (NW)    
Max Wind Speed 10 mph    
Max Gust Speed -    
Visibility 9 miles    
Events Snow    
Averages and records for this station are not official NWS values.
T = Trace of Precipitation, MM = Missing Value Source: NWS Daily Summary

Daily Weather History Graph

Daily Weather History Graph

Search for Another Location

Airport or City:

Trip Planner

Search our weather history database for the weather conditions in past years. The results will help you decide how hot, cold, wet, or windy it might be!

Date:

Astronomy

Jan. 25, 2013 Rise Set
Actual Time 7:15 AM EST 5:18 PM EST
Civil Twilight 6:47 AM EST 5:46 PM EST
Nautical Twilight 6:14 AM EST 6:18 PM EST
Astronomical Twilight 5:43 AM EST 6:50 PM EST
Moon 4:13 PM EST (1/25) 5:53 AM EST (1/25)
Length of Visible Light 10h 59m
Length of Day
10h 02m
Waxing Gibbous, 98% of the Moon is Illuminated
Jan 25
Waxing Gibbous
Jan 26
Full
Feb 3
Last Quarter
Feb 10
New
Feb 17
First Quarter

Hourly Weather History & Observations

Time (EST) Temp. Windchill Dew Point Humidity Pressure Visibility Wind Dir Wind Speed Gust Speed Precip Events Conditions
12:17 AM 21.6 °F 11.3 °F 7.9 °F 56% 30.53 in 10.0 mi NNW 9.2 mph - N/A   Clear
12:38 AM 21.4 °F 11.9 °F 7.7 °F 56% 30.53 in 10.0 mi NNW 8.1 mph - N/A   Clear
1:00 AM 20.8 °F 11.2 °F 7.7 °F 57% 30.53 in 10.0 mi NNW 8.1 mph - N/A   Clear
1:21 AM 21.2 °F 10.1 °F 8.2 °F 57% 30.53 in 10.0 mi NNW 10.4 mph - N/A   Clear
1:42 AM 21.2 °F 13.6 °F 7.5 °F 56% 30.53 in 10.0 mi North 5.8 mph - N/A   Clear
2:03 AM 20.8 °F 14.4 °F 7.7 °F 57% 30.53 in 10.0 mi NNW 4.6 mph - N/A   Clear
2:25 AM 19.4 °F 12.8 °F 8.6 °F 63% 30.53 in 10.0 mi NNW 4.6 mph - N/A   Clear
2:46 AM 18.9 °F 13.7 °F 9.1 °F 66% 30.52 in 10.0 mi North 3.5 mph - N/A   Clear
3:07 AM 17.6 °F - 9.0 °F 69% 30.53 in 10.0 mi Calm Calm - N/A   Clear
3:29 AM 18.5 °F - 9.1 °F 67% 30.52 in 10.0 mi Calm Calm - N/A   Clear
3:50 AM 19.6 °F 9.7 °F 7.2 °F 59% 30.52 in 10.0 mi NNE 8.1 mph - N/A   Clear
4:11 AM 19.4 °F 12.8 °F 6.4 °F 57% 30.52 in 10.0 mi NNE 4.6 mph - N/A   Clear
4:33 AM 18.5 °F 10.4 °F 6.8 °F 60% 30.50 in 10.0 mi NNE 5.8 mph - N/A   Clear
4:54 AM 19.2 °F 12.5 °F 6.4 °F 58% 30.51 in 10.0 mi NNE 4.6 mph - N/A   Clear
5:15 AM 19.0 °F - 7.0 °F 59% 30.52 in 10.0 mi Calm Calm - N/A   Clear
5:36 AM 19.2 °F 11.3 °F 6.6 °F 58% 30.51 in 10.0 mi NNE 5.8 mph - N/A   Clear
5:50 AM 19.4 °F 12.8 °F 6.8 °F 58% 30.53 in 10.0 mi North 4.6 mph - N/A   Clear
5:58 AM 19.2 °F 12.5 °F 5.5 °F 55% 30.52 in 10.0 mi North 4.6 mph - N/A   Clear
6:19 AM 19.4 °F 14.3 °F 5.4 °F 55% 30.52 in 10.0 mi NNE 3.5 mph - N/A   Clear
6:24 AM 19.4 °F 14.3 °F 5.0 °F 54% 30.52 in 10.0 mi North 3.5 mph - N/A   Clear
6:48 AM 19.4 °F 14.3 °F 6.8 °F 58% 30.51 in 10.0 mi NE 3.5 mph - N/A   Overcast
7:50 AM 19.4 °F - 6.8 °F 58% 30.50 in 10.0 mi Calm Calm - N/A   Overcast
8:50 AM 21.2 °F - 6.8 °F 54% 30.50 in 10.0 mi Calm Calm - N/A   Overcast
9:50 AM 23.0 °F - 5.0 °F 46% 30.47 in 10.0 mi Calm Calm - N/A   Overcast
10:48 AM 24.8 °F - 6.8 °F 46% 30.44 in 10.0 mi Calm Calm - N/A   Overcast
11:52 AM 24.8 °F 19.1 °F 8.6 °F 50% 30.41 in 10.0 mi SW 4.6 mph - N/A   Overcast
12:50 PM 24.8 °F 16.9 °F 10.4 °F 54% 30.36 in 10.0 mi SSW 6.9 mph - N/A   Overcast
1:52 PM 24.8 °F 17.9 °F 10.4 °F 54% 30.31 in 10.0 mi SSW 5.8 mph - N/A   Overcast
2:55 PM 26.6 °F 19.1 °F 8.6 °F 47% 30.26 in 10.0 mi SSW 6.9 mph - N/A   Overcast
3:10 PM 24.8 °F 16.9 °F 12.2 °F 59% 30.24 in 1.5 mi SSW 6.9 mph - N/A Snow Light Snow
3:49 PM 24.8 °F 16.1 °F 12.2 °F 59% 30.23 in 4.0 mi SSW 8.1 mph - N/A Snow Light Snow
4:52 PM 23.0 °F 13.9 °F 19.4 °F 86% 30.23 in 1.8 mi SW 8.1 mph - N/A Snow Light Snow
5:51 PM 21.2 °F 14.9 °F 21.2 °F 100% 30.19 in 1.8 mi South 4.6 mph - N/A Snow Light Snow
6:50 PM 21.2 °F 12.6 °F 21.2 °F 100% 30.18 in 5.0 mi SSW 6.9 mph - N/A Snow Light Snow
7:50 PM 23.0 °F 14.7 °F 21.2 °F 93% 30.16 in 10.0 mi WSW 6.9 mph - N/A   Overcast
8:50 PM 23.0 °F 18.4 °F 21.2 °F 93% 30.13 in 10.0 mi West 3.5 mph - N/A   Overcast
9:54 PM 22.1 °F 17.4 °F 18.9 °F 87% 30.12 in 10.0 mi WNW 3.5 mph - N/A   Mostly Cloudy
10:15 PM 21.7 °F 17.0 °F 19.2 °F 90% 30.13 in 10.0 mi WNW 3.5 mph - N/A   Mostly Cloudy
10:36 PM 22.1 °F 17.4 °F 19.4 °F 89% 30.12 in 10.0 mi WNW 3.5 mph - N/A   Mostly Cloudy
10:57 PM 22.1 °F 15.9 °F 19.6 °F 90% 30.12 in 10.0 mi NW 4.6 mph - N/A   Overcast
11:19 PM 22.1 °F 17.4 °F 19.6 °F 90% 30.12 in 10.0 mi WNW 3.5 mph - N/A   Overcast
11:40 PM 21.2 °F 16.4 °F 19.2 °F 92% 30.12 in 10.0 mi WNW 3.5 mph - N/A   Overcast